Location: Newark
(48.2308°N, 120.8549°W)
Time: 01:36:20
(UTC+00:00)

FENGYUN 1C DEB - Pass Details

Date: 04 February 2022
Orbit: 822 x 948 km, 99.2° (Epoch: 28 May)

Event Time Altitude Azimuth Distance (km) Brightness Sun altitude
Rises 03:12:53 0° 162° (SSE) 3,611 ? -21.2°
Reaches altitude 10° 03:15:20 10° 162° (SSE) 2,667 ? -21.6°
Maximum altitude 03:21:21 90° 50° (NE) 947 ? -22.6°
Drops below altitude 10° 03:27:17 10° 345° (NNW) 2,634 ? -23.6°
Sets 03:29:41 0° 345° (NNW) 3,565 ? -24.0°
